Погода в Аэропорте

Россия / Волгоградская область     48°47′46″N   44°21′14″E
темп.,
°C
ветер,
м/с
пор.,
м/с
влажн.,
%
обл.,
%
осадки,
мм/ч
давл.,
гПа
погр.,
м
21 апреля, ср
ср2100:00+13ююв8178220 0.1 1011645
03:00+12ю61291100 0.1 1012365
06:00+10юз61477100 0.0 1015643
09:00+12юз7966100 0.0 10161018
12:00+14юз676094 0.0 10161345
15:00+14зюз675899 0.1 10171431
18:00+14юз35605 0.0 1018458
21:00+11ююз477423 0.0 1020146
22 апреля, чт
чт2200:00+10зюз48795 0.0 1020200
03:00+9зюз348045 0.0 102157
06:00+9з3475100 0.0 102290
09:00+13зсз225744 0.0 1023498
12:00+16юв114216 0.0 10231750
15:00+18з12357 0.0 10221861
18:00+17с1243100 0.0 1022214
21:00+15всв234592 0.0 1022124
23 апреля, пт
пт2300:00+14в2347100 0.0 102290
03:00+13вюв236594 0.0 102296
06:00+11в3571100 0.0 1022189
09:00+14в4555100 0.0 1022607
12:00+17всв4446100 0.0 10211447
15:00+16св334696 0.0 10201610
18:00+16св334991 0.0 1019471
21:00+13в235817 0.0 101986
24 апреля, сб
сб2400:00+11ююв22665 0.0 101837
03:00+10ююз22745 0.0 101736
06:00+10юз2382100 0.0 101891
09:00+14зюз456297 0.0 1017610
12:00+17зюз794755 0.0 10161857
15:00+18зюз9114341 0.0 10152442
18:00+11сз9137897 0.4 1017605
21:00+9з58745 0.4 1018452
25 апреля, вс
вс2500:00+8з36844 0.0 1019168
03:00+7зюз22820 0.0 102044
06:00+8ююз2378100 0.0 102099
09:00+13ю444891 0.0 10201103
12:00+16ююз4742100 0.0 10192163
15:00+15зюз4545100 0.0 10181540
18:00+13юз2355100 0.0 1018277
21:00+11зюз2269100 0.2 1018141